STARLINK-32876, 63151

Orbit data source: Space-Track

STARLINK-32876, 63151 is a payload satellite owned by SpaceX/Seattle (US) in LEO that was launched on Mon, 03 Mar 2025 UTC via an FALCON 9 launch vehicle from the Air Force Eastern Test Range (AFETR). Payload-class satellites include a variety of spacecraft equipped with specific instruments for various scientific and technological missions. These include communications satellites like Starlink; space stations such as the ISS; scientific satellites like the Hubble; Earth observation satellites from companies like Planet Labs, Umbra, and HawkEye 360; GPS; miniature CubeSats for education and research; and military/defense satellites.

Loading next visibility...
Identifier
63151, 2025-043V
Orbit
LEO
Last TLE update
8 hours ago
Origin
Manufacturer
SpaceX/Seattle
Mission
Operational Commercial Communications
Bus & Motor
STARLINK V2M, Unknown motor
Mass
730 kg wet, ~700 kg dry
Launch date (UTC)
2025-03-03 (4 months ago)
Launch vehicle
FALCON 9
Launch site
Air Force Eastern Test Range (AFETR)
Object type
Payload
Rocket body
Debris
Shape & HBR
Box + 2 Pan, 29 m
Radar Cross Section
33.884 m², Large (>1 m²)

Expand to show TLE details & history

TLE from 8 hours ago
0 STARLINK-32876
1 63151U 25043V   25186.43778225  .00013970  00000-0  51613-3 0  9999
2 63151  42.9954 332.1215 0000629 209.3757 150.7059 15.27585698 19551
Epoch: 2025-07-05T10:30Z
TLE epoch observation values (Epoch: 2025-07-05T10:30:24.386Z)
Latitude
-0.00003°
Longitude
-109.15598°
Altitude
483.183 km
Speed
7.625 km/s
True Right ascension
22h 08m 29s
True Declination
0° 00' 00"
Sunlit
Object was in full shadow at epoch
Visualization orbit readout
Latitude
-26.21623°
Longitude
-142.64495°
Altitude
489.731 km
Speed
7.621 km/s
Apparent Right ascension
19h 06m 40s
Apparent Declination
-33° 22' 23"
Sunlit
Object is in full shadow
Visualization observer readout
Local Sidereal Time
06:06:10
Azimuth
293.642° NW
Elevation
-76.24°
Doppler factor
1
Orbital elements
Apogee altitude
485.41 km
Perigee altitude
484.546 km
Semi-major axis
6,863.115 km
Eccentricity
0.00006
Inclination
42.9954°
RAAN
332.1215°
Arg. of periapsis
209.3757°
True anomaly
Unknown
Mean anomaly
150.7059°
Eccentric anomaly
Unknown
Mean motion
3.81734 °/min
Orbital period
94.31 mins
BSTAR
0.00051613
Loading maneuver chart data...
Loading SW <> Apogee altitude chart data...
Loading historical data...
Loading historical data...
Loading historical data...
Loading historical data...
Loading historical data...
Loading historical data...
Loading historical data...

STARLINK-32876 Visibility forecast

Observer location: undefined°, undefined°

Span
Click to sort rows by Start time (UTC) header in descending order
Start Az.
Max El. time (UTC)
Max El. Az.
Max El.
End time (UTC)
End Az.
6 mins2025-07-05 18:49:40.649Z276.491° WNW2025-07-05 18:52:40.649Z212.812° SW32.808°2025-07-05 18:55:40.649Z141.917° SSE
5 mins2025-07-06 13:25:40.649Z232.024° WSW2025-07-06 13:27:40.649Z177.649° S41.28°2025-07-06 13:30:40.649Z77.922° E
5 mins2025-07-06 15:04:40.649Z281.972° WNW2025-07-06 15:06:40.649Z336.219° NNW38.82°2025-07-06 15:09:40.649Z68.729° E
6 mins2025-07-06 16:43:40.649Z293.377° NW2025-07-06 16:45:40.649Z331.249° NNW40.112°2025-07-06 16:49:40.649Z93.864° ESE
|